THORAD AGENA D DEB, 42490

Orbit data source: Space-Track

THORAD AGENA D DEB, 42490 is space debris in SSO originally from a launch on Wed, 08 Apr 1970 UTC launched from the Air Force Western Test Range (AFWTR). Debris objects in space refer to the collection of defunct objects orbiting the Earth. Examples of debris include non-operational satellites, rocket bodies, and fragments generated from explosions, collisions, or faulty payload assembly.

Loading next visibility...
Identifier
42490, 1970-025QU
Orbit
SSO
Country
Flag of USUS
Related business
Manufacturer
Unknown
Mission
Spacecraft
Bus & Motor
Unknown
Mass
Unknown
Launch date (UTC)
1970-04-08 (56 years ago)
Launch vehicle
Unknown
Launch site
Air Force Western Test Range (AFWTR)
Object type
Payload
Rocket body
Debris
Shape & HBR
Unknown shape, 0.1 m
Radar Cross Section
Small (<0.1 m²)

Expand to show TLE details & history
Last TLE update: 5 days ago

TLE from 5 days ago
0 THORAD AGENA D DEB
1 42490U 70025QU  25284.05464391  .00001343  00000-0  20005-2 0  9996
2 42490  99.9287 217.6223 0117931   4.8595 355.3657 13.52749906538861
Epoch: 2025-10-11T01:18Z
TLE epoch observation values (Epoch: 2025-10-11T01:18:41.233Z)
Latitude
0.00002°
Longitude
178.05886°
Altitude
977.474 km
Speed
7.406 km/s
True Right ascension
14h 30m 29s
True Declination
0° 00' 00"
Sunlit
Object was in daylight at epoch
Visualization orbit readout
Latitude
Unknown
Longitude
Unknown
Altitude
Unknown
Speed
Unknown
Apparent Right ascension
Unknown
Apparent Declination
Unknown
Sunlit
N/A
Visualization observer readout
Local Sidereal Time
15:18:59
Azimuth
Unknown
Elevation
Unknown
Doppler factor
Unknown
Orbital elements
Apogee altitude
1,147.18 km
Perigee altitude
971.755 km
Semi-major axis
7,437.604 km
Eccentricity
0.01179
Inclination
99.9287°
RAAN
217.6223°
Arg. of periapsis
4.8595°
True anomaly
355.25489°
Mean anomaly
355.3657°
Eccentric anomaly
355.31046°
Mean motion
3.38371 °/min
Orbital period
106.39 mins
BSTAR
0.0020005

Documentation

Showing up to 5 results
|